Location: Kitchener-Waterloo
(43.4500°N, 80.5000°W)
Time: 06:26:25
(UTC-04:00)

Amateur Radio Satellites - All Passes

Search period start: 28 May 2017 05:56
Search period end: 29 May 2017 05:56
Location: Kitchener-Waterloo, 43.4500°N, 80.5000°W

Satellite Date Start Highest point End Downlink Frequencies (MHz)
Time Altitude Azimuth
PCSat 28 May 05:56:33 06:00:56 26° 252° (WSW) 06:05:18 145.827
CUBESAT XI-V 28 May 06:02:20 06:06:20 27° 265° (W) 06:10:23 437.345
STARS 28 May 06:19:21 06:23:29 42° 261° (W) 06:27:38 437.465
SO-50 28 May 06:24:20 06:28:12 27° 44° (NE) 06:32:02 436.795
XW-2B 28 May 06:25:48 06:27:08 11° 90° (E) 06:28:29 145.730 - 145.750
STRAND 1 28 May 06:28:11 06:31:05 15° 59° (ENE) 06:34:00 437.568
XW-2F 28 May 06:36:23 06:38:39 15° 91° (E) 06:40:54 145.980 - 146.000
DOVE 4 28 May 06:36:40 06:40:24 31° 96° (E) 06:44:14 437.250
XW-2C 28 May 06:38:30 06:41:03 17° 92° (E) 06:43:35 145.795 - 145.815
KAITUO 1B 28 May 06:41:20 06:43:21 14° 91° (E) 06:45:22 145.475/437.950
BEESAT 2 28 May 06:41:59 06:45:57 87° 303° (WNW) 06:50:01 435.950
ITAMSAT 1 28 May 06:48:23 06:50:23 12° 304° (NW) 06:52:23 435.822/435.867
AO-85 28 May 06:55:01 06:57:06 14° 322° (NW) 06:59:09 145.980
AO-7 28 May 06:56:28 07:03:23 30° 306° (NW) 07:10:19 .
BEESAT 3 28 May 06:59:16 07:02:37 25° 315° (NW) 07:06:01 437.485
CUTE-I 28 May 07:13:37 07:18:36 38° 98° (E) 07:23:33 437.470
LilacSat-2 28 May 07:17:36 07:21:25 51° 100° (E) 07:25:10 437.200
XW-2D 28 May 07:49:50 07:53:40 65° 285° (WNW) 07:57:28 145.860 - 145.880
CUTE 1.7 + AOD 2 28 May 07:52:11 07:55:07 18° 92° (E) 07:58:01 437.475
M-CUBED/EXP-1 PRIME 28 May 07:56:22 07:59:42 24° 64° (ENE) 08:02:52 437.505
NO-84 28 May 07:56:58 08:00:17 21° 127° (SE) 08:03:35 435.350 FM
XW-2B 28 May 07:57:53 08:01:40 53° 286° (WNW) 08:05:24 145.730 - 145.750
RS-15 28 May 08:02:23 08:12:27 27° 8° (N) 08:22:19 29.354- 29.394
NUDT-PHONESAT 28 May 08:02:51 08:06:36 59° 285° (WNW) 08:10:18 437.300
SO-50 28 May 08:04:31 08:08:47 42° 242° (WSW) 08:13:04 436.795
STRAND 1 28 May 08:04:32 08:09:37 76° 257° (WSW) 08:14:46 437.568
XW-2A 28 May 08:06:32 08:09:01 18° 94° (E) 08:11:30 145.665 - 145.685
XW-2F 28 May 08:09:21 08:12:59 40° 288° (WNW) 08:16:33 145.980 - 146.000
XW-2C 28 May 08:11:49 08:15:22 36° 289° (WNW) 08:18:54 145.795 - 145.815
KAITUO 1B 28 May 08:13:57 08:17:35 42° 288° (WNW) 08:21:10 145.475/437.950
DOVE 4 28 May 08:14:40 08:18:00 23° 292° (WNW) 08:21:23 437.250
BEESAT 2 28 May 08:22:19 08:24:21 13° 323° (NW) 08:26:23 435.950
SEEDS 28 May 08:37:21 08:41:14 35° 97° (E) 08:45:04 437.485
HO-68 28 May 08:38:30 08:45:36 56° 101° (ESE) 08:52:37 435.675
CUBEBUG 2 28 May 08:47:06 08:51:22 36° 97° (E) 08:55:43 437.445
LilacSat-2 28 May 08:53:18 08:55:14 13° 296° (WNW) 08:57:11 437.200
CUTE-I 28 May 08:53:54 08:58:30 30° 295° (WNW) 09:03:05 437.470
UWE-3 28 May 08:53:58 08:57:53 27° 95° (E) 09:01:49 435.000/436.395/437.385
Oscar 11 28 May 09:19:51 09:23:02 19° 93° (E) 09:26:11 .
CUTE 1.7 + AOD 2 28 May 09:27:07 09:31:08 41° 289° (WNW) 09:35:07 437.475
M-CUBED/EXP-1 PRIME 28 May 09:30:21 09:34:02 30° 257° (WSW) 09:37:31 437.505
AAUSAT CUBESAT 2 28 May 09:31:29 09:35:37 67° 101° (ESE) 09:39:42 437.432
TIGRISAT 28 May 09:31:47 09:34:47 19° 64° (ENE) 09:37:50 435.000
NO-84 28 May 09:33:13 09:37:35 67° 323° (NW) 09:41:50 435.350 FM
PRISM 28 May 09:37:32 09:41:05 28° 68° (ENE) 09:44:38 437.425
XW-2A 28 May 09:38:51 09:41:46 26° 290° (WNW) 09:44:40 145.665 - 145.685
FO-29 28 May 09:47:46 09:52:24 34° 66° (ENE) 09:57:14 435.910
AO-73 28 May 09:47:47 09:52:14 50° 99° (E) 09:56:40 145.935
ZACube-1 28 May 10:02:48 10:07:24 80° 103° (ESE) 10:11:59 437.345
UNISAT 6 28 May 10:02:49 10:06:50 41° 71° (ENE) 10:10:57 437.425
SEEDS 28 May 10:13:30 10:16:42 21° 294° (WNW) 10:19:53 437.485
RS-15 28 May 10:17:04 10:28:56 50° 40° (NE) 10:40:15 29.354- 29.394
CUBEBUG 2 28 May 10:24:04 10:27:48 25° 293° (WNW) 10:31:36 437.445
HO-68 28 May 10:26:47 10:32:57 32° 300° (WNW) 10:39:05 435.675
UWE-3 28 May 10:30:13 10:34:20 33° 291° (WNW) 10:38:29 435.000/436.395/437.385
EO-88 28 May 10:44:50 10:48:07 30° 97° (E) 10:51:22 145.990 - 145.960
Oscar 11 28 May 10:55:14 10:59:19 40° 289° (WNW) 11:03:21 .
NANOSAT C BR1 28 May 10:56:43 10:57:05 10° 60° (ENE) 10:57:27 145.865
POLYITAN 1 28 May 11:01:23 11:03:19 13° 61° (ENE) 11:05:14 437.675
DUCHIFAT 1 28 May 11:05:18 11:06:41 11° 61° (ENE) 11:08:03 145.980
TIGRISAT 28 May 11:07:04 11:11:08 43° 262° (W) 11:15:19 435.000
DELFI C3 28 May 11:08:42 11:12:40 86° 104° (ESE) 11:16:34 145.870
AAUSAT CUBESAT 2 28 May 11:08:56 11:10:31 12° 298° (WNW) 11:12:05 437.432
QB50P2 28 May 11:09:16 11:11:58 17° 64° (ENE) 11:14:41 145.880/145.840
NO-84 28 May 11:12:27 11:15:48 22° 342° (NNW) 11:19:03 435.350 FM
PRISM 28 May 11:12:55 11:16:20 25° 264° (W) 11:19:45 437.425
LO-87 28 May 11:23:37 11:24:39 11° 91° (E) 11:25:41 145.935 - 145.965
AO-73 28 May 11:24:57 11:28:04 19° 296° (WNW) 11:31:13 145.935
FO-29 28 May 11:33:06 11:37:36 29° 266° (W) 11:42:13 435.910
UNISAT 6 28 May 11:40:44 11:43:45 18° 268° (W) 11:46:49 437.425
ZACube-1 28 May 11:41:08 11:43:02 12° 299° (WNW) 11:44:56 437.345
EO-79 28 May 11:44:24 11:48:12 35° 70° (ENE) 11:52:02 145.935-145.965
AIST 2D 28 May 11:47:12 11:50:42 74° 76° (ENE) 11:54:16 435.315
AO-85 28 May 12:02:40 12:04:51 14° 38° (NE) 12:07:05 145.980
YUBILEINY 28 May 12:03:30 12:11:48 42° 72° (ENE) 12:20:02 435.215
EO-88 28 May 12:18:56 12:21:36 19° 293° (WNW) 12:24:15 145.990 - 145.960
NANOSAT C BR1 28 May 12:27:57 12:32:07 84° 260° (W) 12:36:20 145.865
RS-15 28 May 12:30:02 12:41:54 61° 246° (WSW) 12:53:09 29.354- 29.394
POLYITAN 1 28 May 12:34:24 12:38:33 64° 259° (WSW) 12:42:45 437.675
DUCHIFAT 1 28 May 12:37:36 12:41:45 73° 258° (WSW) 12:45:57 145.980
O/OREOS (USA 219) 28 May 12:43:17 12:45:58 15° 50° (NE) 12:48:38 437.305
QB50P2 28 May 12:43:21 12:47:23 46° 261° (W) 12:51:29 145.880/145.840
BUGSAT 1 28 May 12:48:12 12:51:59 43° 72° (ENE) 12:55:49 437.445
NO-84 28 May 12:51:58 12:54:36 16° 3° (N) 12:57:07 435.350 FM
LO-87 28 May 12:54:55 12:58:21 47° 286° (WNW) 13:01:47 145.935 - 145.965
ESTCUBE 1 28 May 13:03:40 13:08:12 87° 281° (W) 13:12:41 437.505/2401.250
EO-79 28 May 13:20:54 13:24:04 21° 267° (W) 13:27:15 145.935-145.965
BEESAT 2 28 May 13:22:21 13:24:11 13° 36° (NE) 13:26:01 435.950
SPROUT 28 May 13:30:01 13:34:10 47° 99° (E) 13:38:18 437.525
Gurwin Techsat 1B 28 May 13:34:31 13:39:14 34° 67° (ENE) 13:43:59 435.225
BEESAT 3 28 May 13:36:51 13:40:30 32° 47° (NE) 13:44:06 437.485
Oscar 19 28 May 13:40:25 13:45:31 61° 72° (ENE) 13:50:39 437.125/150
AO-85 28 May 13:41:42 13:45:44 84° 237° (WSW) 13:50:00 145.980
VELOX 1 28 May 13:50:47 13:55:11 77° 103° (ESE) 13:59:34 145.980
50 SAT 28 May 13:53:55 13:57:11 41° 99° (E) 14:00:23 437.505
YUBILEINY 28 May 14:00:23 14:08:39 46° 272° (W) 14:16:53 435.215
UKube-1 28 May 14:08:19 14:12:02 28° 96° (E) 14:15:44 .
AO-7 28 May 14:12:53 14:19:18 26° 52° (NE) 14:25:45 .
DX 1 28 May 14:19:48 14:24:05 54° 101° (E) 14:28:19 434.975-435.025
O/OREOS (USA 219) 28 May 14:21:24 14:25:53 68° 250° (WSW) 14:30:20 437.305
BUGSAT 1 28 May 14:25:12 14:27:34 15° 268° (W) 14:29:57 437.445
NO-84 28 May 14:29:44 14:33:15 29° 25° (NNE) 14:36:30 435.350 FM
ESTCUBE 1 28 May 14:43:34 14:44:15 10° 302° (WNW) 14:44:55 437.505/2401.250
RS-15 28 May 14:47:17 14:51:28 13° 268° (W) 14:55:37 29.354- 29.394
ITAMSAT 1 28 May 14:47:41 14:51:44 24° 63° (ENE) 14:55:49 435.822/435.867
BEESAT 2 28 May 14:58:33 15:02:38 78° 55° (NE) 15:06:40 435.950
SPROUT 28 May 15:06:55 15:09:42 17° 296° (WNW) 15:12:30 437.525
Gurwin Techsat 1B 28 May 15:14:25 15:19:09 33° 264° (W) 15:23:56 435.225
BEESAT 3 28 May 15:14:36 15:17:59 26° 246° (WSW) 15:21:19 437.485
Oscar 19 28 May 15:21:48 15:25:14 18° 269° (W) 15:28:41 437.125/150
50 SAT 28 May 15:28:15 15:29:40 12° 296° (WNW) 15:31:05 437.505
VELOX 1 28 May 15:29:21 15:31:01 12° 300° (WNW) 15:32:40 145.980
MOZHAYETS 4 28 May 15:30:29 15:31:54 11° 88° (E) 15:33:19
ITUPSAT 1 28 May 15:32:50 15:36:29 21° 93° (E) 15:40:07 437.325
UKube-1 28 May 15:44:20 15:48:00 28° 293° (WNW) 15:51:38 .
DX 1 28 May 15:57:14 15:59:49 16° 298° (WNW) 16:02:24 434.975-435.025
AO-7 28 May 16:02:54 16:11:12 82° 253° (WSW) 16:19:35 .
BEESAT 28 May 16:04:16 16:08:52 43° 99° (E) 16:13:24 436.000
NO-84 28 May 16:07:19 16:11:00 49° 226° (SW) 16:14:21 435.350 FM
ITAMSAT 1 28 May 16:25:56 16:30:54 47° 260° (W) 16:35:55 435.822/435.867
BEESAT 2 28 May 16:39:13 16:39:45 10° 252° (WSW) 16:40:17 435.950
CUTE-I 28 May 17:01:37 17:02:40 11° 54° (NE) 17:03:42 437.470
MOZHAYETS 4 28 May 17:04:56 17:09:37 78° 284° (WNW) 17:14:14
ITUPSAT 1 28 May 17:09:55 17:14:30 44° 290° (WNW) 17:19:04 437.325
XW-2C 28 May 17:22:42 17:23:35 11° 62° (ENE) 17:24:28 145.795 - 145.815
KKS-1 28 May 17:42:30 17:46:39 38° 98° (E) 17:50:46 437.445
BEESAT 28 May 17:42:39 17:46:21 23° 296° (WNW) 17:50:03 436.000
DOVE 4 28 May 17:43:04 17:47:14 37° 71° (ENE) 17:51:13 437.250
CUBESAT XI-V 28 May 17:56:43 18:01:22 68° 101° (E) 18:05:57 437.345
AO-7 28 May 18:00:18 18:05:10 17° 271° (W) 18:10:04 .
LilacSat-2 28 May 18:00:32 18:03:54 29° 70° (ENE) 18:07:18 437.200
STARS 28 May 18:07:20 18:11:13 30° 97° (E) 18:15:06 437.465
XW-2D 28 May 18:31:37 18:35:24 68° 75° (ENE) 18:39:15 145.860 - 145.880
CUTE-I 28 May 18:36:29 18:41:44 70° 73° (ENE) 18:47:02 437.470
XW-2B 28 May 18:39:36 18:43:25 82° 76° (ENE) 18:47:17 145.730 - 145.750
NUDT-PHONESAT 28 May 18:42:42 18:46:23 69° 75° (ENE) 18:50:08 437.300
CUTE 1.7 + AOD 2 28 May 18:46:21 18:48:58 16° 63° (ENE) 18:51:34 437.475
XW-2F 28 May 18:50:35 18:54:23 75° 257° (WSW) 18:58:14 145.980 - 146.000
XW-2C 28 May 18:53:26 18:57:13 66° 259° (W) 19:01:03 145.795 - 145.815
KAITUO 1B 28 May 18:54:20 18:58:06 83° 254° (WSW) 19:01:56 145.475/437.950
PCSat 28 May 18:55:34 19:00:26 35° 111° (ESE) 19:05:19 145.827
HO-68 28 May 19:08:07 19:14:53 47° 65° (ENE) 19:21:42 435.675
Tancredo 1 28 May 19:19:25 19:21:20 15° 133° (SE) 19:23:15 437.200
KKS-1 28 May 19:19:33 19:22:58 22° 295° (WNW) 19:26:24 437.445
DOVE 4 28 May 19:21:35 19:25:02 21° 266° (W) 19:28:22 437.250
SEEDS 28 May 19:29:58 19:33:37 28° 69° (ENE) 19:37:18 437.485
LilacSat-2 28 May 19:35:15 19:38:11 21° 266° (W) 19:41:10 437.200
CUBESAT XI-V 28 May 19:35:40 19:38:10 15° 299° (WNW) 19:40:39 437.345
STARS 28 May 19:43:46 19:47:28 27° 293° (WNW) 19:51:09 437.465
CUBEBUG 2 28 May 19:46:32 19:50:13 31° 69° (ENE) 19:54:02 437.445
UWE-3 28 May 19:52:25 19:55:45 23° 66° (ENE) 19:59:09 435.000/436.395/437.385
XW-2A 28 May 20:10:24 20:13:44 67° 259° (W) 20:17:07 145.665 - 145.685
ISS 28 May 20:11:58 20:14:57 32° 139° (SE) 20:17:57 437.550
STRAND 1 28 May 20:14:02 20:18:42 34° 97° (E) 20:23:21 437.568
Oscar 11 28 May 20:15:59 20:18:58 18° 64° (ENE) 20:21:57 .
CUTE-I 28 May 20:19:11 20:22:18 16° 270° (W) 20:25:25 437.470
CUTE 1.7 + AOD 2 28 May 20:20:11 20:24:22 52° 261° (W) 20:28:35 437.475
AAUSAT CUBESAT 2 28 May 20:22:12 20:26:14 49° 73° (ENE) 20:30:17 437.432
PCSat 28 May 20:38:44 20:43:46 38° 310° (NW) 20:48:51 145.827
AO-73 28 May 20:44:12 20:48:12 42° 71° (ENE) 20:52:18 145.935
Tancredo 1 28 May 20:53:42 20:56:45 65° 330° (NNW) 20:59:50 437.200
HO-68 28 May 20:56:13 21:02:43 36° 263° (W) 21:09:16 435.675
ZACube-1 28 May 20:59:23 21:03:36 68° 74° (ENE) 21:07:56 437.345
SEEDS 28 May 21:05:40 21:09:16 26° 265° (W) 21:12:52 437.485
CUBEBUG 2 28 May 21:23:35 21:26:54 23° 267° (W) 21:30:18 437.445
EO-88 28 May 21:24:25 21:26:47 17° 66° (ENE) 21:29:09 145.990 - 145.960
UWE-3 28 May 21:28:14 21:32:01 33° 264° (W) 21:35:56 435.000/436.395/437.385
ISS 28 May 21:48:17 21:51:24 39° 336° (NNW) 21:54:33 437.550
Oscar 11 28 May 21:50:35 21:54:45 45° 261° (W) 21:58:57 .
STRAND 1 28 May 21:53:17 21:57:49 32° 294° (WNW) 22:02:20 437.568
DELFI C3 28 May 21:54:42 21:58:36 54° 73° (ENE) 22:02:30 145.870
AAUSAT CUBESAT 2 28 May 21:59:37 22:01:58 15° 269° (W) 22:04:20 437.432
SO-50 28 May 22:19:20 22:23:42 45° 118° (ESE) 22:28:02 436.795
AO-73 28 May 22:21:43 22:24:39 18° 269° (W) 22:27:38 145.935
Tancredo 1 28 May 22:30:33 22:32:56 20° 349° (N) 22:35:19 437.200
ESTCUBE 1 28 May 22:30:43 22:32:14 12° 59° (ENE) 22:33:46 437.505/2401.250
FO-29 28 May 22:38:05 22:44:02 34° 96° (E) 22:50:32 435.910
ZACube-1 28 May 22:39:10 22:40:23 11° 272° (W) 22:41:37 437.345
M-CUBED/EXP-1 PRIME 28 May 22:41:43 22:44:52 44° 292° (WNW) 22:47:58 437.505
PRISM 28 May 22:52:14 22:56:02 37° 98° (E) 22:59:48 437.425
EO-88 28 May 22:56:49 23:00:11 35° 262° (W) 23:03:36 145.990 - 145.960
TIGRISAT 28 May 22:56:52 23:01:07 35° 97° (E) 23:05:24 435.000
ISS 28 May 23:26:02 23:28:32 19° 356° (N) 23:31:02 437.550
UNISAT 6 28 May 23:29:05 23:33:44 82° 102° (ESE) 23:38:26 437.425
LO-87 28 May 23:31:33 23:35:05 76° 76° (ENE) 23:38:37 145.935 - 145.965
DELFI C3 28 May 23:32:04 23:33:42 12° 270° (W) 23:35:20 145.870
SO-50 29 May 00:00:29 00:04:20 26° 317° (NW) 00:08:10 436.795
ESTCUBE 1 29 May 00:03:48 00:08:21 85° 258° (WSW) 00:12:56 437.505/2401.250
Tancredo 1 29 May 00:07:07 00:09:27 19° 10° (N) 00:11:46 437.200
NANOSAT C BR1 29 May 00:12:21 00:14:41 14° 91° (E) 00:17:01 145.865
POLYITAN 1 29 May 00:18:43 00:21:46 19° 93° (E) 00:24:49 437.675
DUCHIFAT 1 29 May 00:21:23 00:24:03 16° 92° (E) 00:26:42 145.980
FO-29 29 May 00:22:58 00:29:08 48° 291° (WNW) 00:36:01 435.910
SPROUT 29 May 00:24:14 00:28:12 41° 71° (ENE) 00:32:12 437.525
QB50P2 29 May 00:27:09 00:30:42 25° 95° (E) 00:34:14 145.880/145.840
50 SAT 29 May 00:27:44 00:30:16 19° 68° (ENE) 00:32:48 437.505
PRISM 29 May 00:28:10 00:31:03 19° 295° (WNW) 00:33:56 437.425
TIGRISAT 29 May 00:33:49 00:37:38 26° 293° (WNW) 00:41:28 435.000
AIST 2D 29 May 00:44:08 00:47:43 79° 100° (E) 00:51:17 435.315
RS-15 29 May 00:45:26 00:53:44 22° 98° (E) 01:02:07 29.354- 29.394
VELOX 1 29 May 00:48:41 00:53:05 77° 76° (ENE) 00:57:31 145.980
EO-79 29 May 01:02:54 01:07:06 56° 100° (E) 01:11:19 145.935-145.965
ISS 29 May 01:02:56 01:05:47 26° 16° (NNE) 01:08:38 437.550
UKube-1 29 May 01:03:46 01:07:26 28° 67° (ENE) 01:11:08 .
YUBILEINY 29 May 01:05:54 01:14:01 46° 87° (E) 01:22:12 435.215
UNISAT 6 29 May 01:07:52 01:09:48 12° 300° (WNW) 01:11:44 437.425
DX 1 29 May 01:16:04 01:20:18 54° 72° (ENE) 01:24:33 434.975-435.025
Tancredo 1 29 May 01:42:38 01:45:40 56° 28° (NNE) 01:48:41 437.200
NANOSAT C BR1 29 May 01:46:33 01:50:42 52° 287° (WNW) 01:54:50 145.865
Gurwin Techsat 1B 29 May 01:51:40 01:53:16 11° 87° (E) 01:54:52 435.225
Oscar 19 29 May 01:51:46 01:55:23 19° 92° (E) 01:59:00 437.125/150
POLYITAN 1 29 May 01:53:41 01:57:42 40° 289° (WNW) 02:01:43 437.675
DUCHIFAT 1 29 May 01:55:53 01:59:57 46° 288° (WNW) 02:04:01 145.980
50 SAT 29 May 02:00:05 02:02:59 25° 264° (W) 02:05:54 437.505
SPROUT 29 May 02:01:21 02:04:17 18° 268° (W) 02:07:13 437.525
QB50P2 29 May 02:02:44 02:06:29 30° 291° (WNW) 02:10:13 145.880/145.840
BUGSAT 1 29 May 02:03:24 02:07:33 66° 102° (ESE) 02:11:42 437.445
VELOX 1 29 May 02:29:25 02:30:04 10° 271° (W) 02:30:43 145.980
MOZHAYETS 4 29 May 02:33:15 02:35:32 14° 61° (ENE) 02:37:52
ISS 29 May 02:39:15 02:42:32 73° 215° (SW) 02:45:47 437.550
UKube-1 29 May 02:39:43 02:43:24 27° 264° (W) 02:47:07 .
EO-79 29 May 02:40:00 02:42:25 15° 297° (WNW) 02:44:50 145.935-145.965
ITUPSAT 1 29 May 02:40:29 02:44:33 29° 66° (ENE) 02:48:39 437.325
RS-15 29 May 02:52:08 03:04:15 82° 120° (ESE) 03:16:40 29.354- 29.394
DX 1 29 May 02:54:26 02:56:49 14° 269° (W) 02:59:12 434.975-435.025
O/OREOS (USA 219) 29 May 02:58:32 03:00:13 12° 97° (E) 03:01:55 437.305
YUBILEINY 29 May 03:02:44 03:10:51 42° 288° (WNW) 03:19:06 435.215
BEESAT 29 May 03:11:30 03:16:09 57° 72° (ENE) 03:20:51 436.000
Tancredo 1 29 May 03:18:59 03:21:09 18° 226° (SW) 03:23:19 437.200
Gurwin Techsat 1B 29 May 03:28:35 03:33:57 88° 115° (ESE) 03:39:16 435.225
Oscar 19 29 May 03:30:01 03:35:03 55° 289° (WNW) 03:40:03 437.125/150
BUGSAT 1 29 May 03:40:37 03:42:23 12° 298° (WNW) 03:44:09 437.445
PCSat 29 May 03:41:48 03:46:52 38° 50° (NE) 03:51:54 145.827
AO-85 29 May 03:58:06 04:01:17 21° 114° (ESE) 04:04:22 145.980
AO-7 29 May 04:03:41 04:10:55 32° 96° (E) 04:18:08 .
MOZHAYETS 4 29 May 04:07:30 04:12:06 72° 258° (WSW) 04:16:45
ITUPSAT 1 29 May 04:17:59 04:22:16 33° 263° (W) 04:26:36 437.325
O/OREOS (USA 219) 29 May 04:34:24 04:38:59 73° 295° (WNW) 04:43:35 437.305
ITAMSAT 1 29 May 04:37:14 04:42:22 55° 101° (E) 04:47:29 435.822/435.867
KKS-1 29 May 04:41:25 04:45:33 40° 70° (ENE) 04:49:42 437.445
BEESAT 29 May 04:51:21 04:54:18 16° 269° (W) 04:57:15 436.000
CUBESAT XI-V 29 May 05:00:37 05:05:19 75° 75° (ENE) 05:10:02 437.345
BEESAT 3 29 May 05:04:38 05:08:14 35° 117° (ESE) 05:11:54 437.485
STARS 29 May 05:04:55 05:08:45 31° 68° (ENE) 05:12:37 437.465
RS-15 29 May 05:06:51 05:18:10 41° 327° (NNW) 05:29:38 29.354- 29.394
Gurwin Techsat 1B 29 May 05:10:28 05:13:08 14° 303° (WNW) 05:15:48 435.225
SO-50 29 May 05:10:41 05:12:18 12° 31° (NNE) 05:13:55 436.795
PCSat 29 May 05:25:20 05:30:13 35° 249° (WSW) 05:35:04 145.827
AO-85 29 May 05:37:37 05:41:27 38° 310° (NW) 05:45:11 145.980
